www.pogodaiklimat.ru

Погода и климат >> Архив погоды >> Малайзия >> Kuantan


ПОГОДА в Kuantan

  • Прогноз погоды в Kuantan
  • Монитор погоды в Kuantan
  • Климат города

АРХИВ ПОГОДЫ в Kuantan

Время (UTC), дата Ветер
(напр.,м/с)
 
Видим.   Явления Облачность Т
(С)
Тd
(С)
f
(%)
Тe
(С)
Тes
(С)
Комфортность P
(гПа)
Po
(гПа)
Тmin
(С)
Tmax
(С)
R
(мм)
S
(см)
15 14.02 СЗ 3 9000 м слабый дождь 8/5 240 м
[Sc Ac trans Cs]
+24.3 +23.2 94 +33 +33 очень
душно
1017.0 1015.2
18 14.02 СВ 1 12 км дымка {дождь} 8/4 300 м
[Sc Ac trans Ci sp]
+23.3 +22.5 95 +32 +32 очень
душно
1015.7 1013.9 1
21 14.02 СЗ 2 8000 м дымка {дождь} 8/4 240 м
[Sc Ac lent Cs]
+23.2 +22.8 98 +32 +32 очень
душно
1014.0 1012.2
00 15.02 СЗ 3 8000 м слабый дождь 8/4 210 м
[Sc Ac trans Cs]
+23.6 +22.8 95 +31 +31 очень
душно
1014.8 1013.0 +23.0 10
03 15.02 СЗ 3 >70 км слабый дождь 8/4 210 м
[Sc Ac trans Cs]
+25.6 +24.4 93 +36 +41 очень
душно
1015.9 1014.1
06 15.02 СЗ 4 9000 м слабый дождь 8/4 210 м
[Sc Ac trans Cs]
+25.2 +24.3 95 +35 +40 очень
душно
1014.1 1012.3 2
09 15.02 СЗ 4 8000 м слабый дождь 8/5 210 м
[Frnb Ac lent Cs]
+25.7 +24.4 93 +36 +37 очень
душно
1012.7 1010.9
12 15.02 С 3 9000 м слабый дождь 8/4 720 м
[Sc Ac trans Cs]
+24.0 +23.1 95 +32 +32 очень
душно
1014.2 1012.4 +27.7 0.2
15 15.02 СЗ 3 10 км слабый дождь 8/3 720 м
[Sc Ac trans Ci sp]
+23.1 +22.4 96 +32 +32 очень
душно
1015.9 1014.1
18 15.02 СЗ 2 10 км дымка {дождь} 8/3 210 м
[Sc Ac trans Ci sp]
+23.2 +22.4 95 +32 +32 очень
душно
1014.9 1013.1 5
21 15.02 СЗ 2 9000 м дымка 8/3 150 м
[Sc Ac lent Ci sp]
+22.6 +22.2 98 +30 +30 очень
душно
1013.2 1011.4
00 16.02 СЗ 3 12 км мгла 8/3 240 м
[Sc Ac lent Ci fib]
+22.9 +22.1 95 +31 +31 очень
душно
1014.0 1012.2 +22.5 8
03 16.02 С 2 12 км слабый дождь 8/4 150 м
[Sc Ac lent Cs]
+25.1 +23.9 93 +34 +41 очень
душно
1015.3 1013.5
06 16.02 С 4 14 км слабый дождь 8/3 500 м
[Cb cap Ac lent Cs]
+27.7 +25.0 85 +40 +46 очень
душно
1013.2 1011.4 0.2
09 16.02 С 4 12 км мгла {дождь} 8/4 500 м
[Cb calv Ac As Cs]
+27.7 +24.9 85 +40 +41 очень
душно
1011.5 1009.7
12 16.02 С 2 12 км мгла 8/1 720 м
[Sc Ac trans Ci fib]
+25.7 +23.9 90 +35 +35 очень
душно
1012.7 1010.9 +29.9
15 16.02 СЗ 2 12 км мгла 8/1 720 м
[Sc Ac trans Ci fib]
+24.4 +23.5 95 +33 +33 очень
душно
1014.1 1012.3
18 16.02 СЗ 2 9000 м мгла 8/1 720 м
[Sc Ac trans Ci fib]
+24.0 +23.2 95 +32 +32 очень
душно
1013.7 1011.9
21 16.02 СЗ 2 9000 м дымка 8/3 120 м
[St Ac lent Ci sp]
+23.6 +22.8 95 +31 +31 очень
душно
1012.6 1010.8
00 17.02 СЗ 2 18 км дымка 8/1 750 м
[Sc Ac lent Ci fib]
+23.4 +22.6 95 +32 +33 очень
душно
1013.9 1012.1 +22.9 0.2
03 17.02 СЗ 3 16 км мгла 8/4 600 м
[Cu med, cong Ac trans Ci sp]
+28.2 +25.4 85 +41 +46 опасность
перегрева
1015.2 1013.4
06 17.02 С 3 20 км мгла 8/4 540 м
[Cu med, cong Ac trans Ci sp]
+29.7 +26.3 82 +45 +52 опасность
перегрева
1012.6 1010.9
09 17.02 С 4 20 км мгла 8/4 540 м
[Cu med, cong Ac trans Ci sp]
+30.1 +26.3 80 +46 +47 опасность
перегрева
1010.5 1008.8
12 17.02 С 2 12 км мгла 8/3 720 м
[Sc Ac lent Ci fib]
+26.2 +24.2 89 +36 +36 очень
душно
1012.0 1010.2 +31.1
15 17.02 СЗ 2 12 км мгла 8/3 720 м
[Sc Ac lent Ci fib]
+24.8 +23.6 93 +34 +34 очень
душно
1014.3 1012.5
18 17.02 СЗ 2 9000 м мгла 8/3 180 м
[Sc Ac lent Ci fib]
+23.7 +23.0 96 +31 +31 очень
душно
1013.9 1012.1
21 17.02 С 1 8000 м дымка 8/3 150 м
[Sc Ac trans Ci sp]
+23.6 +22.8 95 +31 +31 очень
душно
1012.5 1010.7
00 18.02 СЗ 2 10 км мгла 8/4 570 м
[Cu Sc Ac trans Ci sp]
+23.9 +23.0 95 +32 +32 очень
душно
1013.3 1011.5 +23.4
03 18.02 СЗ 3 15 км осадки на расстоянии 8/5 540 м
[Cu Sc Ac trans Ci sp]
+26.7 +25.2 91 +38 +43 очень
душно
1015.0 1013.2
06 18.02 СВ 3 15 км осадки на расстоянии 8/6 540 м
[Cu Sc Ac trans Ci sp]
+28.5 +25.7 85 +42 +47 опасность
перегрева
1013.1 1011.3
09 18.02 С 4 15 км осадки на расстоянии 8/5 540 м
[Cu Sc Ac trans Ci sp]
+28.8 +26.2 86 +44 +45 опасность
перегрева
1011.5 1009.7
12 18.02 С 3 12 км слабый дождь 8/4 300 м
[Cb cap Ac trans Ci sp]
+25.5 +24.1 92 +35 +35 очень
душно
1012.9 1011.1 +29.5
15 18.02 СЗ 2 12 км в посл. час дождь 8/4 300 м
[Sc Ac lent Ci fib]
+24.2 +23.8 98 +33 +33 очень
душно
1014.1 1012.3
18 18.02 СЗ 2 12 км дымка {дождь} 8/3 750 м
[Cu med, cong Ac trans Ci sp]
+24.1 +23.6 97 +33 +33 очень
душно
1012.9 1011.1 5
21 18.02 СЗ 2 7000 м слабый дождь 8/4 210 м
[St Ac lent Cs]
+24.2 +23.7 97 +33 +33 очень
душно
1011.8 1010.0
00 19.02 СЗ 2 9000 м дымка {дождь} 8/3 270 м
[Sc Ac trans Cs]
+24.2 +23.8 98 +33 +33 очень
душно
1012.6 1010.8 +23.9 7
03 19.02 С 3 9000 м в посл. час дождь 9/4 270 м
[Sc Ac trans Cs]
+26.8 +25.3 92 +39 +44 очень
душно
1014.0 1012.2
06 19.02 З 2 4500 м слабый дождь 8/4 180 м
[Sc Ac trans Cs]
+24.6 +23.9 96 +34 +41 очень
душно
1011.9 1010.1 23
09 19.02 С 2 8000 м слабый дождь 8/6 210 м
[Frnb Ac lent Cs]
+28.7 +26.2 86 +43 +45 опасность
перегрева
1009.5 1007.8
12 19.02 С 2 12 км мгла 8/3 720 м
[Sc Ac trans Ci sp]
+26.0 +24.6 92 +37 +37 очень
душно
1010.4 1008.6 +28.8 4
15 19.02 СЗ 2 10 км мгла 8/3 720 м
[Cu med, cong Ac und Ci ing]
+24.7 +23.8 95 +34 +34 очень
душно
1012.0 1010.2
18 19.02 С 1 8000 м мгла 8/4 270 м
[Sc Ac trans Ci sp]
+23.9 +23.1 95 +32 +32 очень
душно
1010.9 1009.1
21 19.02 СЗ 2 6000 м дымка 8/3 150 м
[Sc Ac lent Ci sp]
+23.2 +22.5 96 +32 +32 очень
душно
1009.3 1007.5
00 20.02 СЗ 2 12 км дымка 8/3 300 м
[Sc Ac lent Ci fib]
+23.1 +22.6 97 +32 +32 очень
душно
1011.2 1009.4 +22.6 27
03 20.02 СЗ 3 16 км мгла 8/3 540 м
[Cu med, cong Ac lent Ci sp]
+28.4 +25.9 86 +42 +48 опасность
перегрева
1012.1 1010.3
06 20.02 СЗ 3 18 км мгла 8/4 600 м
[Cu med, cong Ac lent Ci sp]
+31.4 +27.3 79 +50 +57 опасность
перегрева
1009.2 1007.5
09 20.02 С 4 18 км мгла 8/3 600 м
[Cu med, cong Ac lent Ci sp]
+31.6 +27.9 81 +52 +54 опасность
перегрева
1006.9 1005.2
12 20.02 С 2 12 км мгла 8/1 720 м
[Sc Ac trans Ci fib]
+27.0 +25.1 89 +39 +39 очень
душно
1008.3 1006.5 +32.5
15 20.02 СЗ 2 11 км мгла 8/1 720 м
[Sc Ac trans Ci fib]
+25.1 +24.1 94 +35 +35 очень
душно
1011.1 1009.3
18 20.02 СЗ 2 11 км мгла 8/1 720 м
[Sc Ac trans Ci fib]
+24.3 +23.4 95 +33 +33 очень
душно
1010.6 1008.8
21 20.02 СЗ 2 9000 м мгла 9/3 720 м
[Sc Ac trans Ci sp]
+24.0 +23.2 95 +32 +32 очень
душно
1009.4 1007.6
00 21.02 С 1 20 км дымка 8/1 750 м
[Sc Ac lent Ci fib]
+23.9 +23.1 95 +32 +32 очень
душно
1011.2 1009.4 +23.1
03 21.02 СЗ 3 20 км мгла 8/3 660 м
[Cu med, cong Ac lent Ci sp]
+29.0 +26.1 84 +44 +50 опасность
перегрева
1013.2 1011.4
06 21.02 СВ 3 25 км мгла 8/5 540 м
[Cu med, cong Ac trans Ci sp]
+31.1 +27.0 79 +49 +55 опасность
перегрева
1011.1 1009.4
09 21.02 СВ 4 25 км мгла 9/3 570 м
[Cu med, cong Ac lent Ci fib]
+30.7 +26.7 79 +47 +49 опасность
перегрева
1008.4 1006.7
12 21.02 СЗ 2 12 км мгла 8/3 720 м
[Sc Ac lent Ci fib]
+26.8 +25.1 90 +39 +39 очень
душно
1009.7 1007.9 +31.9

 

Местоположение метеостанции Kuantan (Малайзия): широта 3.78 долгота 103.21 высота над уровнем моря 16 м.

В архиве по умолчанию представлена погода в Kuantan за последнюю неделю. Архивные данные за месяц целиком и за предыдущие месяцы, начиная с января 2011 года, Вы можете получить, выбрав интересующий диапазон дат из раскрывающегося списка и нажав кнопку "Ввод!".

Внимание! Время в таблицах - всемирное. Для получения местного времени необходимо прибавить поправку, которая в Kuantan равна 7 ч.

Смотрите также архив погоды в соседних городах и на ближайших метеорологических станциях:

Погода в Kuala Trengganu (Малайзия) (178 км)
Погода в Mersing (Малайзия) (198 км)
Погода в Kuala Lumpur (Малайзия) (198 км)
Погода в Malacca (Малайзия) (199 км)
Погода в Kuala Lumpur Int Airport (Малайзия) (205 км)
Погода в Cameron Highlands (Малайзия) (218 км)
Погода в Johore Bharu / Senai (Малайзия) (245 км)
Погода в Ipoh (Малайзия) (250 км)
Погода в Singapore (Сингапур) (281 км)
Погода в Sitiawan (Малайзия) (283 км)

Пояснения к столбцам:

Ветер - указаны скорость ветра в м/с - средняя за 10 мин, порывы в срок и между сроками (в фигурных скобках) и направление, откуда дует ветер: С - северный, СВ - северо-восточный, В - восточный, ЮВ - юго-восточный, Ю - южный, ЮЗ - юго-западный, З - западный, СЗ - северо-западный.
Видимость - горизонтальная дальность видимости в метрах или километрах. При видимости от 1 до 10 км при отсутствии осадков обычно наблюдается дымка, при ухудшении видимости до 1 км и менее - туман. В сухую погоду видимость может ухудшаться дымом, пылью или мглою.
Явления - указаны атмосферные явления, наблюдавшиеся в срок или в последний час перед сроком; фигурными скобками обозначены явления, наблюдавшиеся между сроками (за 1-3 часа до срока); квадратными скобками обозначены град или гололедные отложения с указанием их диаметра в мм.
Облачность - указаны через наклонную черту общая и нижняя облачность в баллах и высота нижней границы облаков в метрах; квадратными скобками обозначены формы облаков: Ci - перистые, Cs - перисто-слоистые, Cc - перисто-кучевые, Ac - высококучевые, As - высокослоистые, Sc - слоисто-кучевые, Ns - слоисто-дождевые, Cu - кучевые, Cb - кучево-дождевые. Подробнее классификацию облаков см. в Атласе облаков (PDF).
T - Температура воздуха - температура, измеренная на высоте 2 м над землей.
Td - Температура точки росы - температура, при понижении до которой содержащийся в воздухе водяной пар достигнет насыщения.
f - Относительная влажность воздуха - влажноcть воздуха, измеренная на высоте 2 м над землей.
Te - Эффективная температура - температура, которую ощущает одетый по сезону человек в тени. Характеристика душности погоды. При расчете учитывается влияние влажности воздуха и скорости ветра на теплоощущения человека.
Tes - Эффективная температура на солнце - температура, которую ощущает человек, с поправкой на солнечный нагрев. Характеристика знойности погоды. Зависит от высоты солнца над горизонтом, облачности и скорости ветра. Ночью, в пасмурную погоду, а также при ветре 12 м/с и более поправка равна нулю.
P - Атмосферное давление - приведенное к уровню моря атмосферное давление.
Po - Атмосферное давление - измеренное на уровне метеостанции атмосферное давление.
Tmin - Минимальная температура - минимум температуры воздуха на высоте 2 м над землей.
Tmax - Максимальная температура - максимум температуры воздуха на высоте 2 м над землей.
R - Количество осадков - Количество выпавших осадков, мм. При наведении курсора мыши на число - период времени, за который выпало указанное количество осадков.
S - Снежный покров - Высота снежного покрова, см. При наведении курсора мыши на число - состояние снежного покрова и степень покрытия местности в баллах.